[[{"header":{"parameterUnit":"m.s-1","parameterCategory":1,"la1":30.2991,"la2":30.254,"lo1":-89.0895,"lo2":-89.0444,"dy":0.0017,"dx":0.0017,"nx":28,"ny":28,"refTime":"2024-03-11T21:00:00:Z","depth":0,"parameterNumber":2,"parameterNumberName":"U-component_of_WINDS"},"data":[0,0,0,0,0,0,0,0,0,0,0,0,0,0,0,0,0,0,0,0,0,0,0,0,0,0,0,0,0,0,0,0,0,0,0,0,0,0,0,0,0,0,0,0,0,0,0,0,0,0,0,0,0,0,0,0,0,0,-0.4336,-0.4335,0,-0.4256,-0.4255,-0.4254,-0.4182,-0.4181,-0.418,-0.418,-0.4099,-0.4097,-0.4096,0,0,0,0,0,0,0,0,0,0,0,0,0,-0.4427,-0.4426,-0.4336,-0.4335,-0.4334,-0.4256,-0.4255,-0.4254,-0.4182,-0.4181,-0.418,-0.4179,-0.4099,-0.4097,-0.4096,0,0,0,0,0,0,0,0,0,0,0,0,0,-0.4371,-0.4425,-0.4336,-0.4289,-0.4284,-0.4257,-0.4255,-0.4254,-0.4182,-0.4181,-0.418,-0.4179,-0.4099,-0.4098,-0.4096,-0.4109,0,0,-0.4089,-0.4088,0,0,0,0,0,0,0,0,-0.4375,-0.4368,-0.4297,-0.4292,-0.4286,-0.4228,-0.4257,-0.4205,-0.4183,-0.4221,-0.418,-0.4178,-0.4143,-0.4137,-0.4125,-0.4105,-0.4102,-0.4089,-0.4088,-0.4087,-0.4087,0,0,0,0,0,0,0,-0.4379,-0.4371,-0.4304,-0.4296,-0.4289,-0.4272,-0.4262,-0.4247,-0.419,-0.4217,-0.4212,-0.4204,-0.4139,-0.4127,-0.4122,-0.4101,-0.4089,-0.4087,-0.4086,-0.4085,-0.409,-0.4092,0,0,0,0,0,0,-0.439,-0.4375,-0.4307,-0.4302,-0.4328,-0.4271,-0.4261,-0.4248,-0.419,-0.418,-0.4205,-0.42,-0.4131,-0.4125,-0.4119,-0.4133,-0.4087,-0.4085,-0.4084,-0.4089,-0.4091,-0.4092,0,0,0,0,0,0,-0.4392,-0.4384,-0.431,-0.4337,-0.4326,-0.4271,-0.4257,-0.4247,-0.4234,-0.418,-0.417,-0.4203,-0.413,-0.4122,-0.4113,-0.4129,-0.4084,-0.4082,-0.4087,-0.409,-0.4091,-0.416,0,0,0,0,0,0,-0.4395,-0.4385,-0.439,-0.4337,-0.4325,-0.4305,-0.4258,-0.4246,-0.4231,-0.4225,-0.4175,-0.4166,-0.4128,-0.4116,-0.4111,-0.4126,-0.4081,-0.4086,-0.4088,-0.4091,-0.4156,-0.4164,-0.4171,0,0,0,0,0,-0.4398,-0.4412,-0.439,-0.4382,-0.4329,-0.4306,-0.4298,-0.4254,-0.4233,-0.4237,-0.4202,-0.4168,-0.4128,-0.4116,-0.4109,-0.4124,-0.4085,-0.4088,-0.4091,-0.4153,-0.4163,-0.4171,0,0,0,0,0,0,-0.4467,-0.4404,-0.4379,-0.4376,-0.4347,-0.4293,-0.4297,-0.4266,-0.4242,-0.4237,-0.4184,-0.4173,-0.417,-0.4145,-0.4133,-0.4135,-0.4102,-0.4104,-0.4151,-0.416,-0.4168,-0.4175,-0.4079,0,0,0,0,0,-0.4482,-0.4468,-0.4414,-0.4416,-0.4403,-0.4353,-0.4341,-0.431,-0.4277,-0.4264,-0.4229,-0.4199,-0.418,-0.4168,-0.4147,-0.4152,-0.4141,-0.4159,-0.4166,-0.4173,-0.4176,-0.4178,-0.4186,-0.4102,-0.4102,-0.4102,0,0,-0.4513,-0.4476,-0.4471,-0.4429,-0.4403,-0.439,-0.4343,-0.4331,-0.4322,-0.4262,-0.4252,-0.4225,-0.4188,-0.4186,-0.4183,-0.4166,-0.4196,-0.4177,-0.4182,-0.4181,-0.4182,-0.419,-0.4197,-0.4104,-0.4104,-0.4103,0,0,-0.4563,-0.4533,-0.4533,-0.4508,-0.4468,-0.4435,-0.4435,-0.4387,-0.4367,-0.4355,-0.4311,-0.4299,-0.4267,-0.4243,-0.4226,-0.4269,-0.4237,-0.4263,-0.4303,-0.4307,-0.4313,-0.4319,-0.4336,-0.4343,-0.4266,-0.4266,-0.4266,0,-0.4606,-0.4585,-0.4537,-0.4529,-0.4513,-0.4458,-0.4459,-0.4436,-0.4392,-0.4383,-0.4363,-0.4323,-0.4294,-0.4287,-0.4297,-0.4285,-0.4285,-0.4269,-0.4316,-0.4321,-0.4326,-0.4342,-0.4348,-0.427,-0.4269,-0.4269,-0.4268,0,-0.4641,-0.4628,-0.4632,-0.4592,-0.4576,-0.4572,-0.4524,-0.4514,-0.4484,-0.4454,-0.4444,-0.4407,-0.4379,-0.4374,-0.4345,-0.4364,-0.4354,-0.4326,-0.4292,-0.4338,-0.4353,-0.4358,-0.4275,-0.4274,-0.4273,-0.4272,0,0,-0.4733,-0.4667,-0.467,-0.4651,-0.4604,-0.4593,-0.4587,-0.456,-0.4553,-0.4524,-0.4519,-0.4494,-0.4468,-0.4449,-0.4417,-0.4419,-0.4458,-0.4391,-0.4389,-0.4407,-0.4479,-0.4502,-0.451,-0.4436,-0.4437,-0.4437,-0.4483,0,-0.4777,-0.4763,-0.472,-0.472,-0.4708,-0.4657,-0.4652,-0.4623,-0.4594,-0.458,-0.4548,-0.4532,-0.4498,-0.4487,-0.4487,-0.4453,-0.4472,-0.4449,-0.4432,-0.4432,-0.4445,-0.4517,-0.4541,-0.4586,-0.4488,-0.4489,-0.4489,0,-0.4826,-0.4802,-0.4801,-0.4756,-0.4749,-0.4746,-0.4718,-0.4705,-0.4671,-0.465,-0.4631,-0.4594,-0.4586,-0.4554,-0.4543,-0.4528,-0.4518,-0.4501,-0.4502,-0.45,-0.4465,-0.4519,-0.4599,-0.4607,-0.4497,-0.4497,-0.4496,0,-0.4896,-0.4863,-0.4858,-0.4844,-0.4791,-0.479,-0.4768,-0.4733,-0.472,-0.4696,-0.4687,-0.4662,-0.4649,-0.4631,-0.459,-0.4569,-0.4585,-0.4548,-0.4569,-0.457,-0.4576,-0.4576,-0.4657,-0.4566,-0.4566,-0.4566,-0.4566,0,-0.4951,-0.4953,-0.489,-0.4887,-0.4888,-0.4839,-0.4841,-0.4814,-0.4784,-0.4776,-0.473,-0.4723,-0.4668,-0.4655,-0.4623,-0.462,-0.4614,-0.4598,-0.459,-0.4603,-0.4606,-0.4598,-0.4595,-0.4567,-0.4567,-0.4567,-0.4566,0,-0.503,-0.4987,-0.498,-0.493,-0.4918,-0.4921,-0.4879,-0.4875,-0.4844,-0.4834,-0.4829,-0.478,-0.4763,-0.472,-0.4691,-0.4669,-0.4677,-0.466,-0.4688,-0.4683,-0.4708,-0.4707,-0.4788,-0.4797,-0.4698,-0.4699,-0.47,0,-0.5069,-0.5069,-0.502,-0.5012,-0.4992,-0.4978,-0.4965,-0.4917,-0.4905,-0.4868,-0.4869,-0.4848,-0.4829,-0.4805,-0.4767,-0.4746,-0.4729,-0.4759,-0.4726,-0.474,-0.4733,-0.4734,-0.4735,-0.4767,-0.4768,-0.4769,-0.477,0,-0.5143,-0.5122,-0.5105,-0.5081,-0.5066,-0.5045,-0.5021,-0.5016,-0.4962,-0.4952,-0.4934,-0.4919,-0.4891,-0.4872,-0.4845,-0.4822,-0.4788,-0.4781,-0.4785,-0.48,-0.4818,-0.4811,-0.4711,-0.478,-0.4779,-0.4778,-0.4778,-0.4777,-0.5205,-0.5203,-0.5169,-0.5152,-0.5129,-0.5108,-0.5103,-0.5071,-0.5055,-0.5028,-0.5001,-0.4987,-0.4954,-0.4914,-0.4895,-0.4884,-0.4866,-0.4871,-0.4873,-0.4875,-0.4883,-0.4818,-0.4878,-0.4878,-0.4877,-0.4877,-0.4877,0,-0.5278,-0.5254,-0.5239,-0.5207,-0.5194,-0.5162,-0.5134,-0.5126,-0.5114,-0.5086,-0.5069,-0.505,-0.5032,-0.4993,-0.4971,-0.497,-0.4954,-0.4966,-0.4966,-0.4962,-0.4899,-0.4898,-0.4979,-0.4979,-0.4979,-0.4979,-0.4979,-0.4979,-0.5316,-0.5313,-0.5288,-0.5274,-0.5249,-0.5235,-0.5223,-0.5203,-0.5182,-0.5162,-0.5147,-0.5121,-0.509,-0.5066,-0.5048,-0.5037,-0.5032,-0.505,-0.5035,-0.4976,-0.4967,-0.4957,-0.4957,-0.5049,-0.5049,-0.5099,-0.51,-0.51]},{"header":{"parameterUnit":"m.s-1","parameterCategory":1,"la1":30.2991,"la2":30.254,"lo1":-89.0895,"lo2":-89.0444,"dy":0.0017,"dx":0.0017,"nx":28,"ny":28,"refTime":"2024-03-11T21:00:00:Z","depth":0,"parameterNumber":3,"parameterNumberName":"V-component_of_WINDS"},"data":[0,0,0,0,0,0,0,0,0,0,0,0,0,0,0,0,0,0,0,0,0,0,0,0,0,0,0,0,0,0,0,0,0,0,0,0,0,0,0,0,0,0,0,0,0,0,0,0,0,0,0,0,0,0,0,0,0,0,1.9289,1.9288,0,1.9228,1.9227,1.9226,1.9208,1.9208,1.9209,1.9209,1.9141,1.9139,1.9136,0,0,0,0,0,0,0,0,0,0,0,0,0,1.9384,1.9382,1.9289,1.9288,1.9287,1.9228,1.9227,1.9226,1.9208,1.9209,1.9209,1.9209,1.9141,1.9139,1.9136,0,0,0,0,0,0,0,0,0,0,0,0,0,1.9335,1.9382,1.9289,1.9271,1.9269,1.9228,1.9227,1.9226,1.9208,1.9209,1.9209,1.9209,1.9142,1.9139,1.9136,1.9106,0,0,1.9126,1.9125,0,0,0,0,0,0,0,0,1.9337,1.9331,1.9275,1.9272,1.927,1.9226,1.9235,1.9185,1.9208,1.9231,1.9209,1.921,1.9168,1.9163,1.915,1.9103,1.91,1.9126,1.9124,1.9122,1.9122,0,0,0,0,0,0,0,1.9341,1.9334,1.9264,1.9274,1.9271,1.9264,1.9258,1.9226,1.9197,1.9229,1.9228,1.9221,1.9167,1.9153,1.9148,1.9099,1.9126,1.9123,1.9121,1.912,1.9022,1.9021,0,0,0,0,0,0,1.9348,1.9337,1.9266,1.9263,1.9306,1.9262,1.9255,1.924,1.9198,1.9192,1.9221,1.922,1.9159,1.9152,1.9146,1.9107,1.9122,1.9119,1.9118,1.9022,1.9021,1.9021,0,0,0,0,0,0,1.935,1.9342,1.9269,1.9299,1.9289,1.926,1.9243,1.9238,1.9224,1.9191,1.9186,1.9212,1.9159,1.915,1.9116,1.9104,1.9118,1.9115,1.9023,1.9022,1.9021,1.9029,0,0,0,0,0,0,1.9353,1.9343,1.9333,1.9299,1.9288,1.9242,1.9242,1.9237,1.922,1.9219,1.9182,1.9176,1.9158,1.9121,1.9113,1.91,1.9113,1.9024,1.9023,1.9021,1.903,1.9028,1.9027,0,0,0,0,0,1.9357,1.9337,1.9333,1.9324,1.9275,1.9241,1.9235,1.9216,1.9219,1.9207,1.9186,1.9177,1.9107,1.9118,1.9108,1.9094,1.9025,1.9023,1.9021,1.903,1.9029,1.9027,0,0,0,0,0,0,1.9368,1.9332,1.9327,1.9296,1.9272,1.9238,1.9223,1.9215,1.9189,1.9189,1.9165,1.9157,1.9124,1.9106,1.9118,1.9062,1.9065,1.9062,1.9075,1.9073,1.9072,1.9076,1.911,0,0,0,0,0,1.9367,1.9345,1.9314,1.9289,1.9278,1.9253,1.9237,1.9225,1.9199,1.9188,1.9164,1.9137,1.9108,1.909,1.9062,1.9027,1.9018,1.9013,1.9012,1.9011,1.9008,1.8986,1.8983,1.9016,1.9016,1.9016,0,0,1.9365,1.9342,1.9329,1.9291,1.9271,1.9246,1.9244,1.9219,1.9199,1.9183,1.915,1.9131,1.9099,1.9064,1.9047,1.9048,1.8997,1.9009,1.9009,1.9006,1.8984,1.8981,1.8978,1.9014,1.9015,1.9015,0,0,1.9348,1.9329,1.9306,1.9287,1.9257,1.924,1.9235,1.9202,1.919,1.9156,1.9143,1.9119,1.9071,1.9048,1.903,1.9003,1.8994,1.8995,1.8988,1.8967,1.8964,1.8962,1.895,1.8946,1.8992,1.8992,1.8992,0,1.9348,1.9312,1.9295,1.927,1.9252,1.9239,1.9214,1.9195,1.9157,1.9144,1.9146,1.9085,1.9062,1.902,1.9014,1.9001,1.8992,1.8998,1.8966,1.8964,1.8961,1.895,1.8946,1.8992,1.8992,1.8992,1.8992,0,1.9313,1.9288,1.9272,1.9237,1.9218,1.9193,1.917,1.9153,1.9142,1.9125,1.9089,1.9062,1.9027,1.9017,1.9006,1.8973,1.8974,1.8972,1.8974,1.8958,1.8947,1.8943,1.8992,1.8992,1.8992,1.8992,0,0,1.93,1.9257,1.9251,1.9234,1.92,1.9179,1.9153,1.9121,1.9105,1.9079,1.9055,1.9014,1.9012,1.8991,1.8977,1.8959,1.8937,1.8958,1.8957,1.8954,1.8896,1.8897,1.8893,1.8931,1.893,1.893,1.8898,0,1.9278,1.9232,1.9215,1.9176,1.9151,1.9138,1.9114,1.9089,1.9072,1.9047,1.9027,1.8998,1.8998,1.8985,1.8967,1.8944,1.8925,1.8946,1.8905,1.8904,1.8912,1.8887,1.8888,1.886,1.8894,1.8893,1.8893,0,1.9245,1.922,1.9179,1.9146,1.9135,1.9115,1.9083,1.906,1.9031,1.9019,1.8997,1.8984,1.8953,1.8959,1.8914,1.8929,1.8911,1.8897,1.8896,1.889,1.8896,1.8878,1.8851,1.8846,1.8886,1.8887,1.8887,0,1.9238,1.9194,1.9163,1.9149,1.9111,1.9097,1.908,1.9051,1.9033,1.9005,1.8992,1.896,1.8942,1.8916,1.8894,1.8901,1.8851,1.8855,1.8838,1.8839,1.8827,1.8828,1.8794,1.8819,1.8819,1.8819,1.8819,0,1.9213,1.9188,1.9159,1.914,1.9111,1.9091,1.9062,1.9044,1.9018,1.8994,1.898,1.8957,1.893,1.8903,1.8885,1.885,1.8842,1.883,1.8825,1.883,1.8831,1.8817,1.8817,1.8818,1.8818,1.8818,1.8819,0,1.92,1.918,1.9145,1.9112,1.9103,1.9083,1.9053,1.9033,1.9015,1.8984,1.8976,1.8947,1.8914,1.889,1.8847,1.8835,1.8796,1.8792,1.8806,1.8804,1.8787,1.8788,1.8741,1.8733,1.8766,1.8765,1.8765,0,1.9185,1.9165,1.913,1.9113,1.9097,1.907,1.9051,1.9031,1.9011,1.8976,1.8959,1.8925,1.8897,1.8845,1.8818,1.8785,1.8779,1.8765,1.8773,1.8778,1.8776,1.8776,1.8773,1.8763,1.8762,1.8762,1.8762,0,1.9159,1.915,1.9124,1.9094,1.9072,1.9048,1.9022,1.9009,1.8983,1.8962,1.8929,1.8907,1.8863,1.8829,1.8793,1.8773,1.8762,1.876,1.8754,1.8757,1.8765,1.8759,1.8801,1.876,1.8761,1.8761,1.8761,1.8761,1.9143,1.9124,1.9096,1.9067,1.9046,1.9023,1.9002,1.8982,1.8954,1.8918,1.8907,1.8872,1.8841,1.8792,1.8771,1.8742,1.8742,1.8734,1.8731,1.8729,1.8728,1.8772,1.8735,1.8735,1.8735,1.8735,1.8735,0,1.9115,1.9096,1.907,1.9035,1.9012,1.9006,1.8978,1.8958,1.8928,1.8901,1.8874,1.8834,1.8801,1.8772,1.8736,1.8718,1.8712,1.8709,1.8709,1.8704,1.8731,1.8739,1.8715,1.8715,1.8715,1.8715,1.8715,1.8715,1.9097,1.9065,1.9052,1.9008,1.8989,1.8956,1.8939,1.8917,1.8895,1.8852,1.8825,1.8807,1.8778,1.874,1.8708,1.8701,1.8687,1.8685,1.8675,1.87,1.8703,1.8705,1.8712,1.8683,1.8683,1.8651,1.8651,1.8651]}]]